Vancouver, WA
on Monday, November 5, 2012

Monday
Previous Day Next Day
Daily Summary
 ActualAverageRecord
Temperature
Mean Temperature °F 49°F  
Max Temperature 63°F 56°F 69°F (1949)
Min Temperature 50°F 42°F 24°F (1935)
Degree Days
Heating Degree Days 8    
Month to date heating degree days 35  
Since 1 July heating degree days 354  
Cooling Degree Days 0    
Month to date cooling degree days 0  
Year to date cooling degree days 398  
Growing Degree Days6 (Base °F )  
Moisture
Dew Point 51°F   
Average Humidity 77    
Maximum Humidity 93    
Minimum Humidity 60    
Precipitation
Precipitation 0.02 in 0.18 in 1.24 in (1969)
Month to date precipitation 0.40 0.83  
Year to date precipitation 31.56 27.29  
Snow
Snow 0.00 in in in ()
Month to date snowfall 0.0  
Snow Depth 0.00 in   
Wind
Wind Speed 4 mph   
Max Wind Speed 12 mph   
Max Gust Speed 16 mph   
Visibility 10 miles   
Events Rain   

Key: T is trace of precipitation, MM is missing value
Source: NWS Daily Summary
Time(PST)TemperatureDew PointHumidity Pressure Visibility Wind DirectionWind SpeedGust SpeedPrecipitationEvents Conditions
12:53 AM 61.0°F 57.0°F 87% 30.32 in 10.0 miles ESE 3.5 mph - N/A   Mostly Cloudy
1:53 AM 62.1°F 57.0°F 84% 30.32 in 10.0 miles Calm Calm - N/A   Overcast
2:53 AM 61.0°F 57.0°F 87% 30.32 in 10.0 miles Calm Calm - 0.00 in Rain Light Rain
3:53 AM 60.1°F 57.9°F 93% 30.33 in 10.0 miles Calm Calm - 0.01 in   Overcast
4:20 AM 60.8°F 57.2°F 88% 30.33 in 6.0 miles Calm Calm - 0.00 in   Overcast
4:29 AM 60.8°F 57.2°F 88% 30.33 in 4.0 miles Calm Calm - 0.00 in   Overcast
4:53 AM 59.0°F 57.0°F 93% 30.34 in 7.0 miles North 8.1 mph - 0.01 in   Overcast
5:15 AM 57.2°F 55.4°F 94% 30.34 in 10.0 miles North 4.6 mph - N/A   Overcast
5:37 AM 57.2°F 53.6°F 88% 30.34 in 10.0 miles NNW 4.6 mph - N/A   Overcast
5:53 AM 57.9°F 54.0°F 87% 30.34 in 10.0 miles NNW 6.9 mph - N/A   Overcast
6:53 AM 57.9°F 53.1°F 84% 30.35 in 10.0 miles NW 6.9 mph - N/A   Overcast
7:53 AM 57.0°F 53.1°F 87% 30.36 in 10.0 miles NW 4.6 mph - N/A   Overcast
8:11 AM 57.2°F 51.8°F 82% 30.35 in 10.0 miles NW 6.9 mph - N/A   Overcast
8:53 AM 57.9°F 53.1°F 84% 30.35 in 10.0 miles NW 6.9 mph - N/A   Overcast
9:25 AM 57.2°F 51.8°F 82% 30.35 in 10.0 miles NW 9.2 mph - N/A   Overcast
9:53 AM 59.0°F 48.9°F 69% 30.35 in 10.0 miles NW 9.2 mph 16.1 mph N/A   Overcast
10:53 AM 61.0°F 48.9°F 64% 30.33 in 10.0 miles NW 6.9 mph - N/A   Overcast
11:53 AM 60.1°F 46.9°F 62% 30.32 in 10.0 miles NW 6.9 mph - N/A   Overcast
12:53 PM 62.1°F 48.9°F 62% 30.30 in 10.0 miles North 5.8 mph - N/A   Overcast
1:53 PM 63.0°F 48.9°F 60% 30.28 in 10.0 miles NNW 5.8 mph - N/A   Partly Cloudy
2:53 PM 63.0°F 48.9°F 60% 30.27 in 10.0 miles WNW 6.9 mph - N/A   Clear
3:53 PM 62.1°F 48.0°F 60% 30.25 in 10.0 miles WNW 4.6 mph - N/A   Clear
4:53 PM 60.1°F 48.0°F 64% 30.24 in 10.0 miles NW 4.6 mph - N/A   Clear
5:53 PM 57.0°F 48.9°F 74% 30.22 in 10.0 miles Calm Calm - N/A   Clear
6:53 PM 55.9°F 48.0°F 75% 30.21 in 10.0 miles Calm Calm - N/A   Mostly Cloudy
7:08 PM 53.6°F 48.2°F 82% 30.20 in 10.0 miles Calm Calm - N/A   Scattered Clouds
7:53 PM 52.0°F 46.9°F 83% 30.20 in 10.0 miles Calm Calm - N/A   Partly Cloudy
8:53 PM 51.1°F 46.9°F 86% 30.19 in 10.0 miles Calm Calm - N/A   Scattered Clouds
9:04 PM 50.0°F 46.4°F 87% 30.19 in 10.0 miles Calm Calm - N/A   Mostly Cloudy
9:44 PM 51.8°F 48.2°F 88% 30.17 in 10.0 miles Calm Calm - N/A   Overcast
9:53 PM 52.0°F 48.9°F 89% 30.17 in 10.0 miles Calm Calm - N/A   Overcast
10:53 PM 54.0°F 48.9°F 83% 30.16 in 10.0 miles Calm Calm - N/A   Overcast
11:53 PM 53.1°F 48.9°F 86% 30.14 in 10.0 miles NW 4.6 mph - N/A   Overcast
Moon Phase
Nov. 05 Nov. 06 Nov. 13 Nov. 20 Nov. 28
Sunrise:06:56 AM (PST) Moon Rise:10:34 PM (PST)11/5
Sunset:04:51 PM (PST) Moon Set:12:19 PM (PST)11/5

Copyright © 2014 The Weather Underground, Inc.